Location: *
(47.6569°N, 7.4256°E)
Time: 11:20:32
(UTC+00:00)

IRIDIUM 104 - Pass Details

Date: 14 December 2019
Orbit: 776 x 779 km, 86.4° (Epoch: 25 January)

Event Time Altitude Azimuth Distance (km) Brightness Sun altitude
Rises 18:11:56 0° 181° (S) 3,250 7.7 -24.7°
Reaches altitude 10° 18:14:16 10° 182° (S) 2,326 6.9 -25.1°
Maximum altitude 18:19:29 90° 233° (SW) 787 4.2 -25.9°
Enters shadow 18:20:59 49° 3° (N) 1,007 4.7 -26.2°
